Time,TemperatureF,DewpointF,PressureIn,WindDirection,WindDirectionDegrees,WindSpeedMPH,WindSpeedGustMPH,Humidity,HourlyPrecipIn,Conditions,Clouds,dailyrainin,SoftwareType,DateUTC
2013-05-10 00:01:00,66.4,54.7,29.97,WSW,245,0.8,5.4,66,0.00,SCT,,0.00,WeatherDisplay:10.37,2013-05-10 04:01:00,
2013-05-10 00:02:00,66.4,55.1,29.98,SSE,155,3.3,5.8,67,0.00,SCT,,0.00,WeatherDisplay:10.37,2013-05-10 04:02:00,
2013-05-10 00:07:00,66.4,55.1,29.97,SSW,199,3.1,3.5,67,0.00,SCT,,0.00,WeatherDisplay:10.37,2013-05-10 04:07:00,
2013-05-10 00:12:00,66.0,54.3,29.98,SSE,155,1.6,1.6,66,0.00,CLR,,0.00,WeatherDisplay:10.37,2013-05-10 04:12:00,
2013-05-10 00:17:00,66.0,54.7,29.97,South,177,0.7,2.9,67,0.00,CLR,,0.00,WeatherDisplay:10.37,2013-05-10 04:17:00,
2013-05-10 00:22:00,65.8,54.6,29.98,SSE,155,0.0,2.3,67,0.00,CLR,,0.00,WeatherDisplay:10.37,2013-05-10 04:22:00,
2013-05-10 00:27:00,65.8,54.6,29.97,SSW,199,3.6,3.6,67,0.00,CLR,,0.00,WeatherDisplay:10.37,2013-05-10 04:27:00,
2013-05-10 00:32:00,65.5,54.2,29.98,South,177,0.6,1.1,67,0.00,CLR,,0.00,WeatherDisplay:10.37,2013-05-10 04:32:00,
2013-05-10 00:37:00,65.3,54.1,29.98,WSW,245,2.5,3.5,67,0.00,CLR,,0.00,WeatherDisplay:10.37,2013-05-10 04:37:00,
2013-05-10 00:42:00,65.1,53.9,29.98,SSW,199,2.0,2.3,67,0.00,CLR,,0.00,WeatherDisplay:10.37,2013-05-10 04:42:00,
2013-05-10 00:47:00,65.1,54.3,29.98,SSW,199,1.3,4.2,68,0.00,CLR,,0.00,WeatherDisplay:10.37,2013-05-10 04:47:00,
2013-05-10 00:52:00,64.9,54.5,29.98,South,177,3.4,3.5,69,0.00,CLR,,0.00,WeatherDisplay:10.37,2013-05-10 04:52:00,
2013-05-10 00:57:00,64.9,54.5,29.98,South,177,2.5,2.5,69,0.00,CLR,,0.00,WeatherDisplay:10.37,2013-05-10 04:57:00,
2013-05-10 01:02:00,64.8,53.9,29.98,SE,132,1.1,0.0,68,0.00,CLR,,0.00,WeatherDisplay:10.37,2013-05-10 05:02:00,
2013-05-10 01:07:00,64.6,54.2,29.98,SSE,155,2.7,2.7,69,0.00,CLR,,0.00,WeatherDisplay:10.37,2013-05-10 05:07:00,
2013-05-10 01:12:00,64.6,54.2,29.98,SSW,199,4.7,4.7,69,0.00,CLR,,0.00,WeatherDisplay:10.37,2013-05-10 05:12:00,
2013-05-10 01:17:00,64.6,54.2,29.98,SSW,199,2.3,4.7,69,0.00,CLR,,0.00,WeatherDisplay:10.37,2013-05-10 05:17:00,
2013-05-10 01:22:00,64.4,54.0,29.98,WSW,245,2.2,4.6,69,0.00,CLR,,0.00,WeatherDisplay:10.37,2013-05-10 05:22:00,
2013-05-10 01:27:00,64.2,53.8,29.98,West,267,0.0,0.0,69,0.00,CLR,,0.00,WeatherDisplay:10.37,2013-05-10 05:27:00,
2013-05-10 01:32:00,64.2,54.2,29.98,SSW,199,3.2,3.8,70,0.00,CLR,,0.00,WeatherDisplay:10.37,2013-05-10 05:32:00,
2013-05-10 01:37:00,64.2,54.2,29.97,SSW,199,2.1,2.3,70,0.00,CLR,,0.00,WeatherDisplay:10.37,2013-05-10 05:37:00,
2013-05-10 01:42:00,64.0,53.7,29.97,South,177,3.6,3.6,69,0.00,CLR,,0.00,WeatherDisplay:10.37,2013-05-10 05:42:00,
2013-05-10 01:47:00,64.0,53.7,29.97,WSW,245,1.3,1.3,69,0.00,CLR,,0.00,WeatherDisplay:10.37,2013-05-10 05:47:00,
2013-05-10 01:52:00,64.0,53.7,29.97,SSE,155,4.5,4.6,69,0.00,CLR,,0.00,WeatherDisplay:10.37,2013-05-10 05:52:00,
2013-05-10 01:57:00,63.9,53.9,29.97,SSW,199,1.6,4.0,70,0.00,CLR,,0.00,WeatherDisplay:10.37,2013-05-10 05:57:00,
2013-05-10 02:02:00,63.7,54.1,29.97,SW,222,3.5,3.6,71,0.00,CLR,,0.00,WeatherDisplay:10.37,2013-05-10 06:02:00,
2013-05-10 02:07:00,63.7,53.7,29.97,SW,222,3.4,3.5,70,0.00,CLR,,0.00,WeatherDisplay:10.37,2013-05-10 06:07:00,
2013-05-10 02:12:00,63.7,54.1,29.96,South,177,3.8,3.8,71,0.00,-RA,,0.00,WeatherDisplay:10.37,2013-05-10 06:12:00,
2013-05-10 02:17:00,63.7,54.1,29.97,WSW,245,1.7,4.6,71,0.00,-RA,,0.00,WeatherDisplay:10.37,2013-05-10 06:17:00,
2013-05-10 02:22:00,63.7,54.1,29.97,WSW,245,1.4,2.3,71,0.00,-RA,,0.00,WeatherDisplay:10.37,2013-05-10 06:22:00,
2013-05-10 02:27:00,63.5,53.9,29.96,SW,222,3.6,5.1,71,0.00,-RA,,0.00,WeatherDisplay:10.37,2013-05-10 06:27:00,
2013-05-10 02:32:00,63.5,53.9,29.96,SSW,199,0.0,0.0,71,0.00,-RA,,0.00,WeatherDisplay:10.37,2013-05-10 06:32:00,
2013-05-10 02:37:00,63.3,53.8,29.96,SSW,199,0.0,1.1,71,0.00,-RA,,0.00,WeatherDisplay:10.37,2013-05-10 06:37:00,
2013-05-10 02:42:00,63.3,53.8,29.95,SW,222,1.6,1.6,71,0.00,-RA,,0.00,WeatherDisplay:10.37,2013-05-10 06:42:00,
2013-05-10 02:47:00,63.3,53.8,29.96,SW,222,0.4,0.0,71,0.00,-RA,,0.00,WeatherDisplay:10.37,2013-05-10 06:47:00,
2013-05-10 02:52:00,63.1,53.6,29.95,South,177,1.9,3.5,71,0.00,-RA,,0.00,WeatherDisplay:10.37,2013-05-10 06:52:00,
2013-05-10 02:57:00,63.1,54.0,29.95,South,177,3.8,3.8,72,0.00,-RA,,0.00,WeatherDisplay:10.37,2013-05-10 06:57:00,
2013-05-10 03:02:00,63.1,54.0,29.95,South,177,1.7,3.5,72,0.00,-RA,,0.00,WeatherDisplay:10.37,2013-05-10 07:02:00,
2013-05-10 03:07:00,63.1,54.0,29.95,SSW,199,3.6,3.6,72,0.00,-RA,,0.00,WeatherDisplay:10.37,2013-05-10 07:07:00,
2013-05-10 03:12:00,63.1,54.0,29.94,West,267,0.7,1.1,72,0.00,CLR,,0.00,WeatherDisplay:10.37,2013-05-10 07:12:00,
2013-05-10 03:17:00,63.1,54.0,29.94,South,177,3.4,3.5,72,0.00,CLR,,0.00,WeatherDisplay:10.37,2013-05-10 07:17:00,
2013-05-10 03:22:00,63.1,54.0,29.95,SSE,155,0.0,0.0,72,0.00,CLR,,0.00,WeatherDisplay:10.37,2013-05-10 07:22:00,
2013-05-10 03:27:00,63.0,53.8,29.94,SSW,199,4.5,4.6,72,0.00,CLR,,0.00,WeatherDisplay:10.37,2013-05-10 07:27:00,
2013-05-10 03:32:00,63.0,54.2,29.94,SSW,199,1.9,3.5,73,0.00,CLR,,0.00,WeatherDisplay:10.37,2013-05-10 07:32:00,
2013-05-10 03:37:00,63.0,54.2,29.94,SSE,155,2.4,2.4,73,0.00,CLR,,0.00,WeatherDisplay:10.37,2013-05-10 07:37:00,
2013-05-10 03:42:00,62.8,54.0,29.93,West,267,0.0,0.0,73,0.00,CLR,,0.00,WeatherDisplay:10.37,2013-05-10 07:42:00,
2013-05-10 03:47:00,62.8,54.0,29.93,West,267,3.2,3.8,73,0.00,CLR,,0.00,WeatherDisplay:10.37,2013-05-10 07:47:00,
2013-05-10 03:52:00,62.8,53.6,29.93,SSE,155,0.0,1.1,72,0.00,CLR,,0.00,WeatherDisplay:10.37,2013-05-10 07:52:00,
2013-05-10 03:57:00,62.6,53.4,29.93,WSW,245,3.1,3.5,72,0.00,CLR,,0.00,WeatherDisplay:10.37,2013-05-10 07:57:00,
2013-05-10 04:02:00,62.8,54.0,29.92,SW,222,4.0,4.0,73,0.00,CLR,,0.00,WeatherDisplay:10.37,2013-05-10 08:02:00,
2013-05-10 04:07:00,62.6,53.4,29.92,SW,222,0.0,2.3,72,0.00,CLR,,0.00,WeatherDisplay:10.37,2013-05-10 08:07:00,
2013-05-10 04:12:00,62.6,53.4,29.92,SSE,155,3.1,3.5,72,0.00,CLR,,0.00,WeatherDisplay:10.37,2013-05-10 08:12:00,
2013-05-10 04:17:00,62.6,53.4,29.92,SSW,199,3.3,3.5,72,0.00,CLR,,0.00,WeatherDisplay:10.37,2013-05-10 08:17:00,
2013-05-10 04:22:00,62.4,53.3,29.92,WSW,245,1.2,2.3,72,0.00,CLR,,0.00,WeatherDisplay:10.37,2013-05-10 08:22:00,
2013-05-10 04:27:00,62.6,53.8,29.93,WSW,245,3.0,3.5,73,0.00,CLR,,0.00,WeatherDisplay:10.37,2013-05-10 08:27:00,
2013-05-10 04:32:00,62.6,53.8,29.92,SW,222,5.2,5.8,73,0.00,CLR,,0.00,WeatherDisplay:10.37,2013-05-10 08:32:00,
2013-05-10 04:37:00,62.6,53.8,29.93,SW,222,2.2,3.5,73,0.00,CLR,,0.00,WeatherDisplay:10.37,2013-05-10 08:37:00,
2013-05-10 04:42:00,62.6,53.8,29.93,WSW,245,3.6,3.6,73,0.00,CLR,,0.00,WeatherDisplay:10.37,2013-05-10 08:42:00,
2013-05-10 04:47:00,62.6,53.4,29.93,SW,222,2.8,3.6,72,0.00,CLR,,0.00,WeatherDisplay:10.37,2013-05-10 08:47:00,
2013-05-10 04:52:00,62.4,53.3,29.93,SSW,199,0.0,0.0,72,0.00,CLR,,0.00,WeatherDisplay:10.37,2013-05-10 08:52:00,
2013-05-10 04:57:00,62.4,53.6,29.92,SSW,199,3.4,3.5,73,0.00,CLR,,0.00,WeatherDisplay:10.37,2013-05-10 08:57:00,
2013-05-10 05:02:00,62.4,53.3,29.92,South,177,1.7,2.3,72,0.00,CLR,,0.00,WeatherDisplay:10.37,2013-05-10 09:02:00,
2013-05-10 05:07:00,62.4,53.3,29.92,SSW,199,4.1,4.6,72,0.00,CLR,,0.00,WeatherDisplay:10.37,2013-05-10 09:07:00,
2013-05-10 05:12:00,62.2,53.1,29.92,SSW,199,2.7,2.7,72,0.00,CLR,,0.00,WeatherDisplay:10.37,2013-05-10 09:12:00,
2013-05-10 05:17:00,62.2,53.5,29.92,South,177,2.2,2.5,73,0.00,CLR,,0.00,WeatherDisplay:10.37,2013-05-10 09:17:00,
2013-05-10 05:22:00,62.2,53.5,29.92,SW,222,2.0,2.3,73,0.00,CLR,,0.00,WeatherDisplay:10.37,2013-05-10 09:22:00,
2013-05-10 05:27:00,62.1,53.3,29.91,SW,222,4.0,4.0,73,0.00,CLR,,0.00,WeatherDisplay:10.37,2013-05-10 09:27:00,
2013-05-10 05:32:00,62.1,52.9,29.91,WSW,245,0.0,0.0,72,0.00,CLR,,0.00,WeatherDisplay:10.37,2013-05-10 09:32:00,
2013-05-10 05:37:00,61.9,53.1,29.91,SSE,155,2.5,2.5,73,0.00,CLR,,0.00,WeatherDisplay:10.37,2013-05-10 09:37:00,
2013-05-10 05:42:00,61.9,53.5,29.91,SSE,155,2.7,2.7,74,0.00,CLR,,0.00,WeatherDisplay:10.37,2013-05-10 09:42:00,
2013-05-10 05:47:00,61.9,53.9,29.90,South,177,5.7,6.5,75,0.00,CLR,,0.00,WeatherDisplay:10.37,2013-05-10 09:47:00,
2013-05-10 05:52:00,61.9,53.9,29.91,SW,222,2.3,2.3,75,0.00,CLR,,0.00,WeatherDisplay:10.37,2013-05-10 09:52:00,
2013-05-10 05:57:00,61.9,53.9,29.91,SSW,199,3.6,3.6,75,0.00,CLR,,0.00,WeatherDisplay:10.37,2013-05-10 09:57:00,
2013-05-10 06:02:00,61.9,54.2,29.91,SSW,199,2.8,3.6,76,0.00,CLR,,0.00,WeatherDisplay:10.37,2013-05-10 10:02:00,
2013-05-10 06:07:00,61.9,54.2,29.90,SSW,199,2.5,3.5,76,0.00,CLR,,0.00,WeatherDisplay:10.37,2013-05-10 10:07:00,
2013-05-10 06:12:00,61.7,54.1,29.91,SSE,155,3.8,4.0,76,0.00,CLR,,0.00,WeatherDisplay:10.37,2013-05-10 10:12:00,
2013-05-10 06:17:00,61.7,54.4,29.90,SE,132,1.6,2.5,77,0.00,CLR,,0.00,WeatherDisplay:10.37,2013-05-10 10:17:00,
2013-05-10 06:22:00,61.7,54.4,29.90,South,177,0.0,3.5,77,0.00,CLR,,0.00,WeatherDisplay:10.37,2013-05-10 10:22:00,
2013-05-10 06:27:00,61.7,54.4,29.90,South,177,0.0,0.0,77,0.00,CLR,,0.00,WeatherDisplay:10.37,2013-05-10 10:27:00,
2013-05-10 06:32:00,61.5,54.2,29.90,SSE,155,0.3,1.1,77,0.00,CLR,,0.00,WeatherDisplay:10.37,2013-05-10 10:32:00,
2013-05-10 06:37:00,61.5,53.9,29.90,SSE,155,0.0,1.1,76,0.00,CLR,,0.00,WeatherDisplay:10.37,2013-05-10 10:37:00,
2013-05-10 06:42:00,61.5,53.9,29.90,SSE,155,0.0,0.0,76,0.00,CLR,,0.00,WeatherDisplay:10.37,2013-05-10 10:42:00,
2013-05-10 06:47:00,61.3,54.1,29.91,South,177,0.0,0.0,77,0.00,CLR,,0.00,WeatherDisplay:10.37,2013-05-10 10:47:00,
2013-05-10 06:52:00,61.3,54.1,29.91,SSE,155,0.0,2.3,77,0.00,CLR,,0.00,WeatherDisplay:10.37,2013-05-10 10:52:00,
2013-05-10 06:57:00,61.3,53.7,29.91,SSE,155,0.0,0.0,76,0.00,CLR,,0.00,WeatherDisplay:10.37,2013-05-10 10:57:00,
2013-05-10 07:02:00,61.3,53.7,29.92,South,177,0.4,1.1,76,0.00,CLR,,0.00,WeatherDisplay:10.37,2013-05-10 11:02:00,
2013-05-10 07:07:00,61.2,53.5,29.91,SE,132,0.0,2.3,76,0.00,CLR,,0.00,WeatherDisplay:10.37,2013-05-10 11:07:00,
2013-05-10 07:12:00,61.2,53.9,29.92,South,177,0.0,0.0,77,0.00,BKN,,0.00,WeatherDisplay:10.37,2013-05-10 11:12:00,
2013-05-10 07:17:00,61.3,54.1,29.91,SSE,155,0.0,0.0,77,0.00,BKN,,0.00,WeatherDisplay:10.37,2013-05-10 11:17:00,
2013-05-10 07:22:00,61.3,54.1,29.91,South,177,0.6,1.1,77,0.00,BKN,,0.00,WeatherDisplay:10.37,2013-05-10 11:22:00,
2013-05-10 07:27:00,61.5,54.2,29.91,SSE,155,0.0,0.0,77,0.00,BKN,,0.00,WeatherDisplay:10.37,2013-05-10 11:27:00,
2013-05-10 07:32:00,61.5,54.2,29.91,SSW,199,0.5,2.3,77,0.00,BKN,,0.00,WeatherDisplay:10.37,2013-05-10 11:32:00,
2013-05-10 07:37:00,61.7,54.4,29.91,SSW,199,1.6,1.6,77,0.00,BKN,,0.00,WeatherDisplay:10.37,2013-05-10 11:37:00,
2013-05-10 07:42:00,61.9,54.6,29.91,SSE,155,1.6,1.6,77,0.00,BKN,,0.00,WeatherDisplay:10.37,2013-05-10 11:42:00,
2013-05-10 07:47:00,62.1,54.8,29.91,South,177,1.0,1.6,77,0.00,BKN,,0.00,WeatherDisplay:10.37,2013-05-10 11:47:00,
2013-05-10 07:52:00,62.2,54.6,29.91,SSE,155,0.0,1.1,76,0.00,BKN,,0.00,WeatherDisplay:10.37,2013-05-10 11:52:00,
2013-05-10 07:57:00,62.4,54.8,29.91,SSE,155,1.5,1.5,76,0.00,BKN,,0.00,WeatherDisplay:10.37,2013-05-10 11:57:00,
2013-05-10 08:02:00,62.4,55.1,29.91,SSE,155,0.0,0.0,77,0.00,BKN,,0.00,WeatherDisplay:10.37,2013-05-10 12:02:00,
2013-05-10 08:07:00,62.6,55.3,29.91,SE,132,0.0,0.0,77,0.00,BKN,,0.00,WeatherDisplay:10.37,2013-05-10 12:07:00,
2013-05-10 08:12:00,62.8,55.1,29.91,SSW,199,0.0,0.0,76,0.00,OVC,,0.00,WeatherDisplay:10.37,2013-05-10 12:12:00,
2013-05-10 08:17:00,63.1,55.4,29.91,South,177,0.0,0.0,76,0.00,OVC,,0.00,WeatherDisplay:10.37,2013-05-10 12:17:00,
2013-05-10 08:22:00,63.1,55.4,29.91,South,177,0.0,0.0,76,0.00,OVC,,0.00,WeatherDisplay:10.37,2013-05-10 12:22:00,
2013-05-10 08:27:00,63.3,55.6,29.91,South,177,0.0,0.0,76,0.00,OVC,,0.00,WeatherDisplay:10.37,2013-05-10 12:27:00,
2013-05-10 08:32:00,63.7,56.0,29.91,SE,132,0.0,0.0,76,0.00,OVC,,0.00,WeatherDisplay:10.37,2013-05-10 12:32:00,
2013-05-10 08:37:00,63.7,56.0,29.91,South,177,0.0,0.0,76,0.00,OVC,,0.00,WeatherDisplay:10.37,2013-05-10 12:37:00,
2013-05-10 08:42:00,64.0,56.3,29.91,ESE,109,0.0,0.0,76,0.00,OVC,,0.00,WeatherDisplay:10.37,2013-05-10 12:42:00,
2013-05-10 08:47:00,64.0,56.3,29.91,South,177,1.0,1.3,76,0.00,OVC,,0.00,WeatherDisplay:10.37,2013-05-10 12:47:00,
2013-05-10 08:52:00,64.0,56.3,29.91,South,177,0.9,1.1,76,0.00,OVC,,0.00,WeatherDisplay:10.37,2013-05-10 12:52:00,
2013-05-10 08:57:00,64.0,56.3,29.91,South,177,0.6,2.7,76,0.00,OVC,,0.00,WeatherDisplay:10.37,2013-05-10 12:57:00,
2013-05-10 09:02:00,64.0,56.3,29.91,SSW,199,0.5,1.1,76,0.00,OVC,,0.00,WeatherDisplay:10.37,2013-05-10 13:02:00,
2013-05-10 09:07:00,64.0,56.3,29.92,SSE,155,0.0,2.3,76,0.00,OVC,,0.00,WeatherDisplay:10.37,2013-05-10 13:07:00,
2013-05-10 09:12:00,63.7,56.3,29.92,SW,222,2.7,2.9,77,0.00,OVC,,0.00,WeatherDisplay:10.37,2013-05-10 13:12:00,
2013-05-10 09:17:00,63.3,56.0,29.93,South,177,4.0,4.6,77,0.00,OVC,,0.00,WeatherDisplay:10.37,2013-05-10 13:17:00,
2013-05-10 09:22:00,63.3,56.3,29.92,SSE,155,9.4,9.4,78,0.00,OVC,,0.00,WeatherDisplay:10.37,2013-05-10 13:22:00,
2013-05-10 09:27:00,63.1,56.2,29.93,West,267,4.0,4.7,78,0.00,OVC,,0.00,WeatherDisplay:10.37,2013-05-10 13:27:00,
2013-05-10 09:32:00,63.0,56.0,29.93,WSW,245,3.4,3.5,78,0.00,OVC,,0.00,WeatherDisplay:10.37,2013-05-10 13:32:00,
2013-05-10 09:37:00,63.0,56.3,29.93,WSW,245,4.2,4.6,79,0.00,OVC,,0.00,WeatherDisplay:10.37,2013-05-10 13:37:00,
2013-05-10 09:42:00,63.0,56.7,29.93,SW,222,5.9,6.9,80,0.00,OVC,,0.00,WeatherDisplay:10.37,2013-05-10 13:42:00,
2013-05-10 09:47:00,63.0,56.7,29.93,WSW,245,1.1,2.3,80,0.00,OVC,,0.00,WeatherDisplay:10.37,2013-05-10 13:47:00,
2013-05-10 09:52:00,63.1,56.9,29.93,SSW,199,1.1,2.3,80,0.00,OVC,,0.00,WeatherDisplay:10.37,2013-05-10 13:52:00,
2013-05-10 09:57:00,63.1,57.2,29.93,WSW,245,2.5,2.5,81,0.00,OVC,,0.00,WeatherDisplay:10.37,2013-05-10 13:57:00,
2013-05-10 10:02:00,63.3,57.0,29.94,SSW,199,2.0,4.6,80,0.00,OVC,,0.00,WeatherDisplay:10.37,2013-05-10 14:02:00,
2013-05-10 10:07:00,63.3,57.0,29.93,SSW,199,2.9,3.5,80,0.00,OVC,,0.00,WeatherDisplay:10.37,2013-05-10 14:07:00,
2013-05-10 10:12:00,63.5,57.6,29.93,WSW,245,0.0,2.0,81,0.00,OVC,,0.00,WeatherDisplay:10.37,2013-05-10 14:12:00,
2013-05-10 10:17:00,63.7,57.7,29.93,WSW,245,2.7,3.5,81,0.00,OVC,,0.00,WeatherDisplay:10.37,2013-05-10 14:17:00,
2013-05-10 10:22:00,63.7,57.7,29.93,SW,222,4.0,4.0,81,0.00,OVC,,0.00,WeatherDisplay:10.37,2013-05-10 14:22:00,
2013-05-10 10:27:00,63.7,57.7,29.93,SSW,199,2.9,3.5,81,0.00,OVC,,0.00,WeatherDisplay:10.37,2013-05-10 14:27:00,
2013-05-10 10:32:00,64.0,58.1,29.93,SW,222,3.3,3.5,81,0.00,OVC,,0.00,WeatherDisplay:10.37,2013-05-10 14:32:00,
2013-05-10 10:37:00,64.2,58.3,29.94,WSW,245,3.8,3.8,81,0.00,OVC,,0.00,WeatherDisplay:10.37,2013-05-10 14:37:00,
2013-05-10 10:42:00,64.4,58.4,29.93,SSE,155,4.7,4.7,81,0.00,OVC,,0.00,WeatherDisplay:10.37,2013-05-10 14:42:00,
2013-05-10 10:47:00,64.6,58.6,29.93,SW,222,2.8,4.6,81,0.00,OVC,,0.00,WeatherDisplay:10.37,2013-05-10 14:47:00,
2013-05-10 10:52:00,64.8,58.4,29.94,SSW,199,0.0,3.5,80,0.00,OVC,,0.00,WeatherDisplay:10.37,2013-05-10 14:52:00,
2013-05-10 10:57:00,64.9,58.6,29.94,SSW,199,8.0,8.1,80,0.00,OVC,,0.00,WeatherDisplay:10.37,2013-05-10 14:57:00,
2013-05-10 11:02:00,64.9,59.0,29.94,SE,132,4.6,5.8,81,0.00,OVC,,0.00,WeatherDisplay:10.37,2013-05-10 15:02:00,
2013-05-10 11:07:00,64.9,59.0,29.94,South,177,7.2,7.2,81,0.00,OVC,,0.00,WeatherDisplay:10.37,2013-05-10 15:07:00,
2013-05-10 11:12:00,65.1,59.1,29.94,SSW,199,2.4,4.5,81,0.00,OVC,,0.00,WeatherDisplay:10.37,2013-05-10 15:12:00,
2013-05-10 11:17:00,65.3,59.3,29.94,South,177,5.3,9.2,81,0.00,OVC,,0.00,WeatherDisplay:10.37,2013-05-10 15:17:00,
2013-05-10 11:22:00,65.5,59.5,29.94,South,177,3.4,3.5,81,0.00,OVC,,0.00,WeatherDisplay:10.37,2013-05-10 15:22:00,
2013-05-10 11:27:00,65.7,59.7,29.94,SW,222,3.5,3.5,81,0.00,OVC,,0.00,WeatherDisplay:10.37,2013-05-10 15:27:00,
2013-05-10 11:32:00,65.8,59.8,29.93,SW,222,2.6,3.5,81,0.00,OVC,,0.00,WeatherDisplay:10.37,2013-05-10 15:32:00,
2013-05-10 11:37:00,66.0,60.0,29.94,SW,222,3.8,3.8,81,0.00,OVC,,0.00,WeatherDisplay:10.37,2013-05-10 15:37:00,
2013-05-10 11:42:00,66.0,60.0,29.93,South,177,0.8,2.9,81,0.00,OVC,,0.00,WeatherDisplay:10.37,2013-05-10 15:42:00,
2013-05-10 11:47:00,65.8,59.8,29.93,South,177,6.7,9.6,81,0.00,OVC,,0.00,WeatherDisplay:10.37,2013-05-10 15:47:00,
2013-05-10 11:52:00,65.7,59.7,29.93,South,177,6.9,6.9,81,0.00,OVC,,0.00,WeatherDisplay:10.37,2013-05-10 15:52:00,
2013-05-10 11:57:00,65.5,59.5,29.93,SW,222,8.5,8.5,81,0.00,OVC,,0.00,WeatherDisplay:10.37,2013-05-10 15:57:00,
2013-05-10 12:02:00,65.5,59.5,29.93,South,177,5.7,5.8,81,0.00,OVC,,0.00,WeatherDisplay:10.37,2013-05-10 16:02:00,
2013-05-10 12:07:00,65.5,59.5,29.93,SSE,155,9.4,9.4,81,0.00,OVC,,0.00,WeatherDisplay:10.37,2013-05-10 16:07:00,
2013-05-10 12:12:00,65.1,59.1,29.94,South,177,7.4,7.4,81,0.00,OVC,,0.00,WeatherDisplay:10.37,2013-05-10 16:12:00,
2013-05-10 12:17:00,64.9,59.3,29.94,SSW,199,9.4,9.4,82,0.00,OVC,,0.00,WeatherDisplay:10.37,2013-05-10 16:17:00,
2013-05-10 12:22:00,64.8,59.1,29.94,SE,132,2.2,10.4,82,0.00,OVC,,0.00,WeatherDisplay:10.37,2013-05-10 16:22:00,
2013-05-10 12:27:00,64.9,59.3,29.93,South,177,8.5,8.5,82,0.00,OVC,,0.00,WeatherDisplay:10.37,2013-05-10 16:27:00,
2013-05-10 12:32:00,65.1,59.5,29.93,SE,132,5.9,6.3,82,0.00,OVC,,0.00,WeatherDisplay:10.37,2013-05-10 16:32:00,
2013-05-10 12:37:00,65.1,59.5,29.93,SSE,155,8.7,9.2,82,0.00,OVC,,0.00,WeatherDisplay:10.37,2013-05-10 16:37:00,
2013-05-10 12:42:00,65.1,59.5,29.93,SSW,199,5.8,5.8,82,0.00,OVC,,0.00,WeatherDisplay:10.37,2013-05-10 16:42:00,
2013-05-10 12:47:00,64.9,59.3,29.93,SSE,155,2.6,3.6,82,0.00,OVC,,0.00,WeatherDisplay:10.37,2013-05-10 16:47:00,
2013-05-10 12:52:00,64.9,59.3,29.93,South,177,4.4,8.1,82,0.00,OVC,,0.00,WeatherDisplay:10.37,2013-05-10 16:52:00,
2013-05-10 12:57:00,64.8,59.1,29.93,West,267,4.0,9.2,82,0.00,OVC,,0.00,WeatherDisplay:10.37,2013-05-10 16:57:00,
2013-05-10 13:02:00,64.6,59.0,29.92,SW,222,2.8,3.5,82,0.00,OVC,,0.00,WeatherDisplay:10.37,2013-05-10 17:02:00,
2013-05-10 13:07:00,64.4,58.8,29.91,South,177,2.5,2.5,82,0.00,OVC,,0.00,WeatherDisplay:10.37,2013-05-10 17:07:00,
2013-05-10 13:12:00,64.2,58.6,29.91,South,177,4.3,4.6,82,0.00,-RA,,0.00,WeatherDisplay:10.37,2013-05-10 17:12:00,
2013-05-10 13:17:00,64.2,58.9,29.91,WSW,245,4.4,4.7,83,0.00,-RA,,0.00,WeatherDisplay:10.37,2013-05-10 17:17:00,
2013-05-10 13:22:00,64.2,58.9,29.91,SSW,199,4.5,5.8,83,0.00,-RA,,0.00,WeatherDisplay:10.37,2013-05-10 17:22:00,
2013-05-10 13:27:00,64.2,58.9,29.91,SSE,155,2.4,6.7,83,0.00,-RA,,0.00,WeatherDisplay:10.37,2013-05-10 17:27:00,
2013-05-10 13:32:00,64.0,58.8,29.91,South,177,4.7,5.8,83,0.00,-RA,,0.00,WeatherDisplay:10.37,2013-05-10 17:32:00,
2013-05-10 13:37:00,64.0,58.8,29.91,SW,222,8.9,9.2,83,0.00,-RA,,0.00,WeatherDisplay:10.37,2013-05-10 17:37:00,
2013-05-10 13:42:00,64.0,58.8,29.91,SSE,155,3.8,4.2,83,0.00,-RA,,0.00,WeatherDisplay:10.37,2013-05-10 17:42:00,
2013-05-10 13:47:00,64.0,58.8,29.90,SSE,155,8.8,9.2,83,0.00,-RA,,0.00,WeatherDisplay:10.37,2013-05-10 17:47:00,
2013-05-10 13:52:00,64.0,58.8,29.90,South,177,5.1,5.8,83,0.00,-RA,,0.00,WeatherDisplay:10.37,2013-05-10 17:52:00,
2013-05-10 13:57:00,63.7,58.4,29.90,South,177,4.1,4.2,83,0.00,-RA,,0.00,WeatherDisplay:10.37,2013-05-10 17:57:00,
2013-05-10 14:02:00,63.7,58.4,29.90,SSW,199,3.8,3.8,83,0.00,-RA,,0.00,WeatherDisplay:10.37,2013-05-10 18:02:00,
2013-05-10 14:07:00,63.7,58.4,29.90,SSE,155,6.7,6.9,83,0.00,-RA,,0.00,WeatherDisplay:10.37,2013-05-10 18:07:00,
2013-05-10 14:12:00,63.7,58.4,29.90,SSE,155,6.2,6.9,83,0.00,OVC,,0.00,WeatherDisplay:10.37,2013-05-10 18:12:00,
2013-05-10 14:17:00,63.7,58.4,29.89,SSW,199,4.2,4.6,83,0.00,OVC,,0.00,WeatherDisplay:10.37,2013-05-10 18:17:00,
2013-05-10 14:22:00,63.9,58.6,29.89,South,177,4.0,4.0,83,0.00,OVC,,0.00,WeatherDisplay:10.37,2013-05-10 18:22:00,
2013-05-10 14:27:00,64.0,58.8,29.89,SE,132,4.8,4.8,83,0.00,OVC,,0.00,WeatherDisplay:10.37,2013-05-10 18:27:00,
2013-05-10 14:32:00,64.0,58.8,29.89,WSW,245,9.8,10.4,83,0.00,OVC,,0.00,WeatherDisplay:10.37,2013-05-10 18:32:00,
2013-05-10 14:37:00,64.0,58.8,29.88,SSW,199,4.0,4.0,83,0.00,OVC,,0.00,WeatherDisplay:10.37,2013-05-10 18:37:00,
2013-05-10 14:42:00,64.2,58.9,29.89,SSW,199,15.6,17.3,83,0.00,OVC,,0.00,WeatherDisplay:10.37,2013-05-10 18:42:00,
2013-05-10 14:53:00,64.2,58.6,29.88,NNW,335,5.1,15.4,82,0.00,OVC,,0.00,WeatherDisplay:10.37,2013-05-10 18:53:00,
2013-05-10 14:58:00,64.2,58.6,29.88,West,267,5.1,21.9,82,0.00,OVC,,0.00,WeatherDisplay:10.37,2013-05-10 18:58:00,
2013-05-10 15:13:00,64.6,58.6,29.88,SE,132,3.1,9.2,81,0.00,OVC,,0.00,WeatherDisplay:10.37,2013-05-10 19:13:00,
2013-05-10 15:21:00,64.6,58.6,29.88,South,177,7.0,10.4,81,0.00,OVC,,0.00,WeatherDisplay:10.37,2013-05-10 19:21:00,
2013-05-10 15:26:00,64.4,58.4,29.88,West,267,6.5,6.9,81,0.00,OVC,,0.00,WeatherDisplay:10.37,2013-05-10 19:26:00,
2013-05-10 15:31:00,64.2,58.6,29.88,SSE,155,6.6,6.9,82,0.00,OVC,,0.00,WeatherDisplay:10.37,2013-05-10 19:31:00,
2013-05-10 15:36:00,64.2,58.3,29.88,SSW,199,4.2,11.5,81,0.00,OVC,,0.00,WeatherDisplay:10.37,2013-05-10 19:36:00,
2013-05-10 15:41:00,64.2,58.6,29.87,South,177,3.1,6.9,82,0.00,OVC,,0.00,WeatherDisplay:10.37,2013-05-10 19:41:00,
2013-05-10 15:46:00,64.2,58.6,29.87,WSW,245,5.0,10.3,82,0.00,OVC,,0.00,WeatherDisplay:10.37,2013-05-10 19:46:00,
2013-05-10 15:51:00,64.2,58.6,29.87,South,177,7.5,8.1,82,0.00,OVC,,0.00,WeatherDisplay:10.37,2013-05-10 19:51:00,
2013-05-10 15:56:00,64.2,58.6,29.87,SSW,199,5.8,5.8,82,0.00,OVC,,0.00,WeatherDisplay:10.37,2013-05-10 19:56:00,
2013-05-10 16:01:00,64.0,58.4,29.87,WNW,289,8.3,12.7,82,0.00,OVC,,0.00,WeatherDisplay:10.37,2013-05-10 20:01:00,
2013-05-10 16:06:00,64.2,58.9,29.87,South,177,5.1,11.5,83,0.00,OVC,,0.00,WeatherDisplay:10.37,2013-05-10 20:06:00,
2013-05-10 16:11:00,64.2,58.9,29.87,WNW,289,9.2,9.2,83,0.00,-RA,,0.00,WeatherDisplay:10.37,2013-05-10 20:11:00,
2013-05-10 16:16:00,64.2,58.9,29.86,South,177,7.3,10.7,83,0.00,-RA,,0.00,WeatherDisplay:10.37,2013-05-10 20:16:00,
2013-05-10 16:21:00,64.2,58.9,29.86,WSW,245,6.5,6.9,83,0.00,-RA,,0.00,WeatherDisplay:10.37,2013-05-10 20:21:00,
2013-05-10 16:26:00,64.6,59.3,29.86,West,267,2.2,4.6,83,0.00,-RA,,0.00,WeatherDisplay:10.37,2013-05-10 20:26:00,
2013-05-10 16:31:00,64.9,59.7,29.86,SW,222,5.8,13.6,83,0.00,-RA,,0.00,WeatherDisplay:10.37,2013-05-10 20:31:00,
2013-05-10 16:36:00,65.1,59.5,29.86,SSW,199,9.0,10.4,82,0.00,-RA,,0.00,WeatherDisplay:10.37,2013-05-10 20:36:00,
2013-05-10 16:41:00,65.5,59.8,29.86,SSW,199,5.8,8.1,82,0.00,-RA,,0.00,WeatherDisplay:10.37,2013-05-10 20:41:00,
2013-05-10 16:46:00,65.5,59.5,29.86,WSW,245,5.6,5.8,81,0.00,-RA,,0.00,WeatherDisplay:10.37,2013-05-10 20:46:00,
2013-05-10 16:51:00,65.8,59.8,29.86,WNW,289,3.6,16.1,81,0.00,-RA,,0.00,WeatherDisplay:10.37,2013-05-10 20:51:00,
2013-05-10 16:56:00,65.8,59.8,29.86,WSW,245,6.9,10.4,81,0.00,-RA,,0.00,WeatherDisplay:10.37,2013-05-10 20:56:00,
2013-05-10 17:01:00,65.8,59.8,29.86,WSW,245,4.0,11.5,81,0.00,-RA,,0.00,WeatherDisplay:10.37,2013-05-10 21:01:00,
2013-05-10 17:06:00,66.4,60.4,29.86,SW,222,2.9,8.1,81,0.00,-RA,,0.00,WeatherDisplay:10.37,2013-05-10 21:06:00,
2013-05-10 17:11:00,66.7,60.7,29.86,SW,222,8.5,8.5,81,0.00,OVC,,0.00,WeatherDisplay:10.37,2013-05-10 21:11:00,
2013-05-10 17:16:00,66.9,60.5,29.86,WSW,245,1.3,3.5,80,0.00,OVC,,0.00,WeatherDisplay:10.37,2013-05-10 21:16:00,
2013-05-10 17:21:00,67.3,60.9,29.86,SW,222,2.7,3.5,80,0.00,OVC,,0.00,WeatherDisplay:10.37,2013-05-10 21:21:00,
2013-05-10 17:26:00,67.1,60.7,29.86,WSW,245,3.8,3.8,80,0.00,OVC,,0.00,WeatherDisplay:10.37,2013-05-10 21:26:00,
2013-05-10 17:31:00,66.6,60.2,29.86,West,267,1.7,2.3,80,0.00,OVC,,0.00,WeatherDisplay:10.37,2013-05-10 21:31:00,
2013-05-10 17:36:00,66.4,60.0,29.86,West,267,4.7,4.7,80,0.00,OVC,,0.00,WeatherDisplay:10.37,2013-05-10 21:36:00,
2013-05-10 17:41:00,66.0,59.7,29.87,West,267,5.4,5.8,80,0.00,OVC,,0.00,WeatherDisplay:10.37,2013-05-10 21:41:00,
2013-05-10 17:46:00,66.0,59.7,29.86,West,267,4.4,4.6,80,0.00,OVC,,0.00,WeatherDisplay:10.37,2013-05-10 21:46:00,
2013-05-10 17:51:00,66.0,59.7,29.86,SW,222,3.8,4.7,80,0.00,OVC,,0.00,WeatherDisplay:10.37,2013-05-10 21:51:00,
2013-05-10 17:56:00,66.4,60.4,29.86,SW,222,2.7,6.9,81,0.00,OVC,,0.00,WeatherDisplay:10.37,2013-05-10 21:56:00,
2013-05-10 17:58:00,66.4,60.4,29.86,SW,222,0.9,2.3,81,0.00,OVC,,0.00,WeatherDisplay:10.37,2013-05-10 21:58:00,
2013-05-10 17:59:00,66.4,60.4,29.86,WSW,245,1.0,2.2,81,0.00,OVC,,0.00,WeatherDisplay:10.37,2013-05-10 21:59:00,
2013-05-10 18:04:00,66.7,60.7,29.85,SSW,199,4.0,4.0,81,0.00,OVC,,0.00,WeatherDisplay:10.37,2013-05-10 22:04:00,
2013-05-10 18:09:00,66.9,60.9,29.86,WSW,245,0.0,0.0,81,0.00,OVC,,0.00,WeatherDisplay:10.37,2013-05-10 22:09:00,
2013-05-10 18:14:00,67.1,61.1,29.85,West,267,0.0,1.8,81,0.00,OVC,,0.00,WeatherDisplay:10.37,2013-05-10 22:14:00,
2013-05-10 18:19:00,67.3,60.9,29.85,South,177,4.9,5.8,80,0.00,OVC,,0.00,WeatherDisplay:10.37,2013-05-10 22:19:00,
2013-05-10 18:24:00,67.3,60.9,29.86,SW,222,5.4,5.8,80,0.00,OVC,,0.00,WeatherDisplay:10.37,2013-05-10 22:24:00,
2013-05-10 18:29:00,67.3,60.5,29.86,SW,222,9.9,10.4,79,0.00,OVC,,0.00,WeatherDisplay:10.37,2013-05-10 22:29:00,
2013-05-10 18:34:00,67.1,60.4,29.86,SSW,199,3.3,4.6,79,0.00,OVC,,0.00,WeatherDisplay:10.37,2013-05-10 22:34:00,
2013-05-10 18:39:00,66.9,60.2,29.86,SSW,199,5.1,5.1,79,0.00,OVC,,0.00,WeatherDisplay:10.37,2013-05-10 22:39:00,
2013-05-10 18:44:00,66.6,59.8,29.86,SSW,199,3.9,5.8,79,0.00,OVC,,0.00,WeatherDisplay:10.37,2013-05-10 22:44:00,
2013-05-10 18:49:00,66.2,59.8,29.85,West,267,4.0,4.0,80,0.00,OVC,,0.00,WeatherDisplay:10.37,2013-05-10 22:49:00,
2013-05-10 18:54:00,66.0,59.7,29.86,West,267,3.8,3.8,80,0.00,OVC,,0.00,WeatherDisplay:10.37,2013-05-10 22:54:00,
2013-05-10 18:59:00,66.0,59.7,29.85,WSW,245,6.9,6.9,80,0.00,OVC,,0.00,WeatherDisplay:10.37,2013-05-10 22:59:00,
2013-05-10 19:04:00,65.8,59.8,29.86,WNW,289,2.0,3.5,81,0.00,OVC,,0.00,WeatherDisplay:10.37,2013-05-10 23:04:00,
2013-05-10 19:09:00,65.8,59.8,29.87,West,267,0.9,1.1,81,0.00,OVC,,0.00,WeatherDisplay:10.37,2013-05-10 23:09:00,
2013-05-10 19:14:00,65.8,59.8,29.86,SSE,155,2.1,2.3,81,0.00,OVC,,0.00,WeatherDisplay:10.37,2013-05-10 23:14:00,
2013-05-10 19:19:00,65.8,59.8,29.86,South,177,1.5,2.3,81,0.00,OVC,,0.00,WeatherDisplay:10.37,2013-05-10 23:19:00,
2013-05-10 19:24:00,65.8,59.8,29.86,SW,222,3.4,3.5,81,0.00,OVC,,0.00,WeatherDisplay:10.37,2013-05-10 23:24:00,
2013-05-10 19:29:00,65.8,60.2,29.86,West,267,2.5,8.5,82,0.00,OVC,,0.00,WeatherDisplay:10.37,2013-05-10 23:29:00,
2013-05-10 19:34:00,65.7,60.0,29.86,South,177,4.5,5.1,82,0.00,OVC,,0.00,WeatherDisplay:10.37,2013-05-10 23:34:00,
2013-05-10 19:39:00,65.5,59.8,29.87,SW,222,6.3,6.3,82,0.00,OVC,,0.00,WeatherDisplay:10.37,2013-05-10 23:39:00,
2013-05-10 19:44:00,65.5,59.5,29.86,West,267,3.1,3.5,81,0.00,OVC,,0.00,WeatherDisplay:10.37,2013-05-10 23:44:00,
2013-05-10 19:49:00,65.5,59.5,29.87,South,177,3.8,3.8,81,0.00,OVC,,0.00,WeatherDisplay:10.37,2013-05-10 23:49:00,
2013-05-10 19:54:00,65.3,59.3,29.86,WSW,245,4.5,4.6,81,0.00,OVC,,0.00,WeatherDisplay:10.37,2013-05-10 23:54:00,
2013-05-10 19:59:00,65.3,59.3,29.86,West,267,9.8,10.4,81,0.00,OVC,,0.00,WeatherDisplay:10.37,2013-05-10 23:59:00,
2013-05-10 20:04:00,65.3,59.3,29.86,West,267,1.8,2.3,81,0.00,OVC,,0.00,WeatherDisplay:10.37,2013-05-11 00:04:00,
2013-05-10 20:09:00,65.3,59.3,29.87,SW,222,3.1,3.5,81,0.00,BKN,,0.00,WeatherDisplay:10.37,2013-05-11 00:09:00,
2013-05-10 20:14:00,65.1,59.1,29.86,SW,222,1.6,4.5,81,0.00,BKN,,0.00,WeatherDisplay:10.37,2013-05-11 00:14:00,
2013-05-10 20:19:00,65.1,59.1,29.86,SW,222,3.7,3.7,81,0.00,BKN,,0.00,WeatherDisplay:10.37,2013-05-11 00:19:00,
2013-05-10 20:24:00,64.9,59.0,29.86,SSW,199,0.9,1.1,81,0.00,BKN,,0.00,WeatherDisplay:10.37,2013-05-11 00:24:00,
2013-05-10 20:29:00,64.9,59.0,29.86,West,267,2.9,5.4,81,0.00,BKN,,0.00,WeatherDisplay:10.37,2013-05-11 00:29:00,
2013-05-10 20:34:00,64.8,58.8,29.86,WSW,245,3.5,4.6,81,0.00,BKN,,0.00,WeatherDisplay:10.37,2013-05-11 00:34:00,
2013-05-10 20:39:00,64.6,58.6,29.87,WSW,245,0.0,0.0,81,0.00,BKN,,0.00,WeatherDisplay:10.37,2013-05-11 00:39:00,
2013-05-10 20:44:00,64.2,58.3,29.87,South,177,1.7,2.3,81,0.00,BKN,,0.00,WeatherDisplay:10.37,2013-05-11 00:44:00,
2013-05-10 20:49:00,64.2,58.3,29.87,West,267,3.5,3.5,81,0.00,BKN,,0.00,WeatherDisplay:10.37,2013-05-11 00:49:00,
2013-05-10 20:54:00,64.0,58.1,29.87,WSW,245,2.9,3.5,81,0.00,BKN,,0.00,WeatherDisplay:10.37,2013-05-11 00:54:00,
2013-05-10 20:59:00,64.0,58.4,29.88,SW,222,4.9,4.9,82,0.00,BKN,,0.00,WeatherDisplay:10.37,2013-05-11 00:59:00,
2013-05-10 21:04:00,64.0,58.8,29.88,SW,222,2.2,3.5,83,0.00,BKN,,0.00,WeatherDisplay:10.37,2013-05-11 01:04:00,
2013-05-10 21:09:00,64.0,58.8,29.88,SSW,199,3.1,3.5,83,0.00,SCT,,0.00,WeatherDisplay:10.37,2013-05-11 01:09:00,
2013-05-10 21:14:00,64.0,58.8,29.87,West,267,4.8,4.8,83,0.00,SCT,,0.00,WeatherDisplay:10.37,2013-05-11 01:14:00,
2013-05-10 21:19:00,63.7,58.1,29.87,WSW,245,8.4,9.2,82,0.00,SCT,,0.00,WeatherDisplay:10.37,2013-05-11 01:19:00,
2013-05-10 21:24:00,63.7,58.1,29.86,WSW,245,3.6,3.6,82,0.00,SCT,,0.00,WeatherDisplay:10.37,2013-05-11 01:24:00,
2013-05-10 21:29:00,63.5,57.9,29.87,SSW,199,3.4,3.5,82,0.00,SCT,,0.00,WeatherDisplay:10.37,2013-05-11 01:29:00,
2013-05-10 21:34:00,63.3,57.7,29.87,WSW,245,2.5,5.8,82,0.00,SCT,,0.00,WeatherDisplay:10.37,2013-05-11 01:34:00,
2013-05-10 21:39:00,63.3,58.1,29.88,SW,222,2.2,2.3,83,0.00,SCT,,0.00,WeatherDisplay:10.37,2013-05-11 01:39:00,
2013-05-10 21:44:00,63.1,57.9,29.88,WSW,245,2.6,3.5,83,0.00,SCT,,0.00,WeatherDisplay:10.37,2013-05-11 01:44:00,
2013-05-10 21:49:00,63.1,57.9,29.88,WSW,245,2.4,2.5,83,0.00,SCT,,0.00,WeatherDisplay:10.37,2013-05-11 01:49:00,
2013-05-10 21:54:00,63.0,58.0,29.89,SSW,199,2.2,2.3,84,0.00,SCT,,0.00,WeatherDisplay:10.37,2013-05-11 01:54:00,
2013-05-10 21:59:00,62.8,57.9,29.88,WSW,245,1.0,4.5,84,0.00,SCT,,0.00,WeatherDisplay:10.37,2013-05-11 01:59:00,
2013-05-10 22:04:00,62.8,57.9,29.88,West,267,3.7,4.0,84,0.00,SCT,,0.00,WeatherDisplay:10.37,2013-05-11 02:04:00,
2013-05-10 22:09:00,62.6,58.0,29.88,SSW,199,0.0,0.0,85,0.00,SCT,,0.00,WeatherDisplay:10.37,2013-05-11 02:09:00,
2013-05-10 22:14:00,62.4,57.5,29.88,SW,222,0.0,0.0,84,0.00,SCT,,0.00,WeatherDisplay:10.37,2013-05-11 02:14:00,
2013-05-10 22:19:00,62.2,57.3,29.88,WSW,245,0.1,1.1,84,0.00,SCT,,0.00,WeatherDisplay:10.37,2013-05-11 02:19:00,
2013-05-10 22:24:00,62.2,57.3,29.89,SW,222,1.8,2.3,84,0.00,SCT,,0.00,WeatherDisplay:10.37,2013-05-11 02:24:00,
2013-05-10 22:29:00,62.2,57.3,29.89,WSW,245,1.9,2.3,84,0.00,SCT,,0.00,WeatherDisplay:10.37,2013-05-11 02:29:00,
2013-05-10 22:34:00,62.1,57.2,29.89,West,267,0.0,0.0,84,0.00,SCT,,0.00,WeatherDisplay:10.37,2013-05-11 02:34:00,
2013-05-10 22:39:00,62.1,57.2,29.90,WSW,245,0.0,0.0,84,0.00,SCT,,0.00,WeatherDisplay:10.37,2013-05-11 02:39:00,
2013-05-10 22:44:00,61.9,57.0,29.89,SSW,199,1.1,1.3,84,0.00,SCT,,0.00,WeatherDisplay:10.37,2013-05-11 02:44:00,
2013-05-10 22:49:00,61.9,57.0,29.89,South,177,0.3,3.5,84,0.00,SCT,,0.00,WeatherDisplay:10.37,2013-05-11 02:49:00,
2013-05-10 22:54:00,61.9,57.0,29.89,SSE,155,2.2,2.3,84,0.00,SCT,,0.00,WeatherDisplay:10.37,2013-05-11 02:54:00,
2013-05-10 22:59:00,61.9,57.0,29.89,SW,222,0.0,0.0,84,0.00,SCT,,0.00,WeatherDisplay:10.37,2013-05-11 02:59:00,
2013-05-10 23:04:00,61.9,57.0,29.89,West,267,0.5,1.1,84,0.00,SCT,,0.00,WeatherDisplay:10.37,2013-05-11 03:04:00,
2013-05-10 23:09:00,61.9,56.7,29.89,SSW,199,0.0,0.0,83,0.00,OVC,,0.00,WeatherDisplay:10.37,2013-05-11 03:09:00,
2013-05-10 23:14:00,61.9,56.7,29.88,South,177,1.2,1.2,83,0.00,OVC,,0.00,WeatherDisplay:10.37,2013-05-11 03:14:00,
2013-05-10 23:19:00,61.9,56.7,29.89,WSW,245,0.7,2.5,83,0.00,OVC,,0.00,WeatherDisplay:10.37,2013-05-11 03:19:00,
2013-05-10 23:24:00,61.9,56.7,29.88,SW,222,1.8,2.3,83,0.00,OVC,,0.00,WeatherDisplay:10.37,2013-05-11 03:24:00,
2013-05-10 23:29:00,61.9,56.7,29.89,West,267,2.9,3.5,83,0.00,OVC,,0.00,WeatherDisplay:10.37,2013-05-11 03:29:00,
2013-05-10 23:34:00,61.9,57.0,29.89,West,267,0.0,1.1,84,0.00,OVC,,0.00,WeatherDisplay:10.37,2013-05-11 03:34:00,
2013-05-10 23:39:00,61.9,57.3,29.89,WSW,245,0.9,1.1,85,0.00,OVC,,0.00,WeatherDisplay:10.37,2013-05-11 03:39:00,
2013-05-10 23:44:00,61.9,57.3,29.89,SW,222,4.0,4.0,85,0.00,OVC,,0.00,WeatherDisplay:10.37,2013-05-11 03:44:00,
2013-05-10 23:49:00,61.9,57.6,29.89,SW,222,7.6,10.4,86,0.00,OVC,,0.00,WeatherDisplay:10.37,2013-05-11 03:49:00,
2013-05-10 23:54:00,61.9,57.6,29.88,WNW,289,8.5,8.5,86,0.00,OVC,,0.00,WeatherDisplay:10.37,2013-05-11 03:54:00,
2013-05-10 23:59:00,61.9,57.6,29.88,West,267,2.4,3.6,86,0.00,OVC,,0.00,WeatherDisplay:10.37,2013-05-11 03:59:00,